| time (UTC) | temp F | wind direction | speed knots | gust knots | rain 1hr in | rain 24hr in | rain mn in | humidity % | barometer mb |
| 20260508004602 | 51 | 207 | 1.7 | 3.5 | 0.00 | 0.53 | 0.35 | 77 | 1005.1 |
| 20260508003108 | 51 | 207 | 0.9 | 2.6 | 0.00 | 0.53 | 0.35 | 76 | 1004.6 |
| 20260508001600 | 52 | 207 | 0.9 | 1.7 | 0.00 | 0.53 | 0.35 | 74 | 1004.6 |
| 20260508000101 | 53 | 207 | 0.0 | 2.6 | 0.00 | 0.53 | 0.35 | 73 | 1004.5 |
| 20260507234558 | 55 | 198 | 0.9 | 3.5 | 0.00 | 0.68 | 0.35 | 71 | 1004.6 |
| 20260507233057 | 56 | 207 | 1.7 | 4.3 | 0.00 | 0.68 | 0.35 | 69 | 1004.5 |
| 20260507231557 | 57 | 204 | 1.7 | 5.2 | 0.00 | 0.68 | 0.35 | 69 | 1004.3 |
| 20260507230059 | 58 | 191 | 0.9 | 3.5 | 0.00 | 0.68 | 0.35 | 68 | 1004.2 |
| 20260507224614 | 59 | 242 | 0.9 | 4.3 | 0.00 | 0.68 | 0.35 | 68 | 1004.2 |
| 20260507223059 | 58 | 208 | 0.0 | 4.3 | 0.00 | 0.68 | 0.35 | 70 | 1004.1 |
| 20260507221555 | 59 | 219 | 1.7 | 5.2 | 0.00 | 0.68 | 0.35 | 70 | 1004.3 |
| 20260507220057 | 59 | 193 | 1.7 | 4.3 | 0.00 | 0.68 | 0.35 | 70 | 1004.3 |
| 20260507214559 | 59 | 191 | 0.9 | 4.3 | 0.00 | 0.68 | 0.35 | 71 | 1004.1 |
| 20260507213054 | 58 | 234 | 0.9 | 7.8 | 0.00 | 0.68 | 0.35 | 72 | 1004.2 |
| 20260507211615 | 58 | 217 | 2.6 | 5.2 | 0.00 | 0.68 | 0.35 | 71 | 1003.9 |
| 20260507210054 | 58 | 257 | 0.9 | 4.3 | 0.00 | 0.68 | 0.35 | 71 | 1003.9 |
| 20260507204600 | 58 | 219 | 4.3 | 7.8 | 0.00 | 0.68 | 0.35 | 70 | 1003.7 |
| 20260507203051 | 60 | 171 | 4.3 | 7.8 | 0.00 | 0.68 | 0.35 | 67 | 1003.6 |
| 20260507201606 | 61 | 200 | 3.5 | 7.8 | 0.00 | 0.68 | 0.35 | 69 | 1003.5 |
| 20260507200100 | 62 | 115 | 0.9 | 7.0 | 0.00 | 0.68 | 0.35 | 69 | 1003.7 |
| 20260507194553 | 60 | 119 | 1.7 | 9.6 | 0.00 | 0.68 | 0.35 | 69 | 1004.1 |
| 20260507193046 | 61 | 180 | 1.7 | 6.1 | 0.00 | 0.68 | 0.35 | 68 | 1004.3 |
| 20260507191550 | 59 | 134 | 2.6 | 7.0 | 0.00 | 0.68 | 0.35 | 67 | 1004.5 |
| 20260507190045 | 59 | 125 | 1.7 | 8.7 | 0.00 | 0.68 | 0.35 | 69 | 1004.8 |
| 20260507184544 | 62 | 360 | 2.6 | 5.2 | 0.00 | 0.68 | 0.35 | 52 | 1004.8 |
| 20260507183043 | 62 | 67 | 3.5 | 7.0 | 0.00 | 0.68 | 0.35 | 52 | 1004.9 |
| 20260507181540 | 61 | 13 | 1.7 | 7.8 | 0.00 | 0.68 | 0.35 | 55 | 1005.0 |
| 20260507180045 | 59 | 15 | 2.6 | 7.0 | 0.00 | 0.68 | 0.35 | 59 | 1005.4 |
| 20260507174540 | 59 | 319 | 1.7 | 6.1 | 0.00 | 0.68 | 0.35 | 59 | 1005.6 |
| 20260507173036 | 56 | 347 | 2.6 | 8.7 | 0.00 | 0.68 | 0.35 | 65 | 1005.6 |
| 20260507171534 | 56 | 279 | 4.3 | 8.7 | 0.00 | 0.68 | 0.35 | 68 | 1005.7 |
| 20260507170034 | 56 | 324 | 4.3 | 10.4 | 0.00 | 0.68 | 0.35 | 68 | 1006.0 |
| 20260507164534 | 56 | 300 | 5.2 | 9.6 | 0.00 | 0.68 | 0.35 | 70 | 1005.9 |
| 20260507163031 | 55 | 23 | 3.5 | 9.6 | 0.00 | 0.68 | 0.35 | 71 | 1005.9 |
| 20260507161530 | 54 | 299 | 4.3 | 11.3 | 0.00 | 0.68 | 0.35 | 74 | 1006.1 |
| 20260507160034 | 54 | 297 | 4.3 | 11.3 | 0.00 | 0.68 | 0.35 | 72 | 1006.2 |
| 20260507154530 | 54 | 281 | 4.3 | 12.2 | 0.00 | 0.68 | 0.35 | 75 | 1006.4 |
| 20260507153032 | 53 | 340 | 6.1 | 9.6 | 0.00 | 0.68 | 0.35 | 77 | 1006.5 |
| 20260507151525 | 52 | 338 | 3.5 | 10.4 | 0.00 | 0.68 | 0.35 | 80 | 1006.2 |
| 20260507150023 | 50 | 301 | 3.5 | 10.4 | 0.00 | 0.68 | 0.35 | 82 | 1006.4 |
| 20260507144521 | 50 | 348 | 3.5 | 10.4 | 0.00 | 0.68 | 0.35 | 85 | 1006.4 |
| 20260507143023 | 50 | 343 | 2.6 | 4.3 | 0.00 | 0.68 | 0.35 | 87 | 1006.5 |
| 20260507141517 | 49 | 355 | 2.6 | 12.2 | 0.00 | 0.68 | 0.35 | 86 | 1006.4 |
| 20260507140024 | 49 | 313 | 4.3 | 11.3 | 0.00 | 0.68 | 0.35 | 86 | 1006.2 |
| 20260507134514 | 49 | 325 | 6.1 | 11.3 | 0.01 | 0.68 | 0.35 | 86 | 1006.2 |
| 20260507133014 | 48 | 323 | 7.0 | 10.4 | 0.01 | 0.68 | 0.35 | 87 | 1006.0 |
| 20260507131511 | 47 | 319 | 3.5 | 9.6 | 0.01 | 0.68 | 0.35 | 88 | 1006.7 |
| 20260507130010 | 48 | 290 | 3.5 | 9.6 | 0.02 | 0.68 | 0.35 | 88 | 1006.6 |
| 20260507124607 | 48 | 322 | 2.6 | 9.6 | 0.02 | 0.67 | 0.34 | 88 | 1006.5 |
| 20260507123006 | 48 | 15 | 5.2 | 10.4 | 0.02 | 0.67 | 0.34 | 88 | 1006.4 |
| 20260507121505 | 48 | 327 | 4.3 | 13.0 | 0.02 | 0.67 | 0.34 | 88 | 1006.3 |
| 20260507120003 | 49 | 355 | 7.0 | 16.5 | 0.02 | 0.66 | 0.33 | 89 | 1006.6 |
| 20260507114603 | 49 | 355 | 7.0 | 13.0 | 0.01 | 0.65 | 0.32 | 89 | 1006.7 |
| 20260507113059 | 49 | 5 | 7.0 | 12.2 | 0.02 | 0.65 | 0.32 | 89 | 1005.8 |
| 20260507111557 | 49 | 355 | 8.7 | 19.1 | 0.03 | 0.65 | 0.32 | 90 | 1005.9 |
| 20260507110057 | 49 | 332 | 7.8 | 18.2 | 0.04 | 0.64 | 0.31 | 90 | 1006.0 |
| 20260507104554 | 49 | 306 | 8.7 | 16.5 | 0.21 | 0.64 | 0.31 | 91 | 1005.8 |
| 20260507103049 | 49 | 322 | 7.8 | 14.8 | 0.22 | 0.63 | 0.30 | 91 | 1005.6 |
| 20260507101601 | 50 | 335 | 8.7 | 14.8 | 0.22 | 0.62 | 0.28 | 91 | 1005.4 |
| 20260507100045 | 50 | 294 | 10.4 | 14.8 | 0.26 | 0.60 | 0.27 | 91 | 1004.9 |
| 20260507094553 | 51 | 336 | 7.8 | 14.8 | 0.09 | 0.43 | 0.10 | 91 | 1005.4 |
| 20260507093037 | 53 | 5 | 8.7 | 14.8 | 0.06 | 0.40 | 0.07 | 91 | 1004.8 |
| 20260507091551 | 54 | 301 | 3.5 | 13.9 | 0.07 | 0.40 | 0.07 | 92 | 1005.0 |
| 20260507090033 | 54 | 300 | 3.5 | 7.0 | 0.01 | 0.34 | 0.01 | 92 | 1005.5 |
| 20260507084530 | 54 | 245 | 1.7 | 6.1 | 0.01 | 0.34 | 0.01 | 91 | 1004.9 |
| 20260507083030 | 54 | 228 | 1.7 | 5.2 | 0.01 | 0.34 | 0.01 | 91 | 1004.1 |
| 20260507081540 | 54 | 189 | 0.9 | 4.3 | 0.00 | 0.33 | 0.00 | 91 | 1004.0 |
| 20260507080025 | 55 | 211 | 0.9 | 2.6 | 0.00 | 0.33 | 0.00 | 91 | 1004.2 |
| 20260507074527 | 55 | 196 | 1.7 | 3.5 | 0.00 | 0.33 | 0.00 | 91 | 1004.3 |
| 20260507073022 | 55 | 220 | 1.7 | 5.2 | 0.00 | 0.33 | 0.00 | 91 | 1004.5 |
| 20260507071521 | 55 | 234 | 2.6 | 5.2 | 0.00 | 0.33 | 0.00 | 91 | 1005.0 |
| 20260507070020 | 55 | 263 | 0.9 | 4.3 | 0.00 | 0.33 | 0.00 | 91 | 1004.5 |
| 20260507064520 | 55 | 263 | 0.9 | 7.0 | 0.00 | 0.33 | 0.00 | 91 | 1004.5 |
| 20260507063018 | 55 | 211 | 2.6 | 7.8 | 0.00 | 0.33 | 0.00 | 91 | 1004.7 |
| 20260507061529 | 55 | 292 | 2.6 | 10.4 | 0.00 | 0.33 | 0.00 | 91 | 1004.6 |
| 20260507060026 | 56 | 234 | 4.3 | 10.4 | 0.00 | 0.33 | 0.00 | 91 | 1004.7 |
| 20260507054513 | 56 | 255 | 2.6 | 9.6 | 0.00 | 0.33 | 0.00 | 91 | 1004.9 |
| 20260507053111 | 56 | 213 | 3.5 | 10.4 | 0.00 | 0.33 | 0.00 | 91 | 1005.3 |
| 20260507051510 | 56 | 219 | 4.3 | 13.0 | 0.00 | 0.33 | 0.00 | 91 | 1005.4 |
| 20260507050016 | 56 | 215 | 4.3 | 9.6 | 0.00 | 0.33 | 0.00 | 91 | 1005.4 |
| 20260507044511 | 56 | 197 | 3.5 | 9.6 | 0.00 | 0.33 | 0.00 | 91 | 1005.5 |
| 20260507043004 | 56 | 243 | 4.3 | 12.2 | 0.00 | 0.33 | 0.00 | 91 | 1005.8 |
| 20260507041502 | 56 | 318 | 5.2 | 10.4 | 0.00 | 0.33 | 0.00 | 91 | 1006.0 |
| 20260507040100 | 56 | 243 | 6.1 | 16.5 | 0.00 | 0.33 | 0.00 | 91 | 1005.7 |
| 20260507034604 | 56 | 267 | 6.1 | 18.2 | 0.00 | 0.33 | 0.33 | 91 | 1006.0 |
| 20260507033102 | 56 | 222 | 7.8 | 14.8 | 0.00 | 0.33 | 0.33 | 91 | 1005.6 |
| 20260507031558 | 56 | 221 | 4.3 | 14.8 | 0.00 | 0.33 | 0.33 | 91 | 1005.6 |
| 20260507030106 | 56 | 213 | 6.1 | 13.0 | 0.00 | 0.33 | 0.33 | 91 | 1005.8 |
| 20260507024558 | 56 | 231 | 5.2 | 18.2 | 0.00 | 0.33 | 0.33 | 91 | 1006.3 |
| 20260507023052 | 56 | 229 | 7.0 | 15.6 | 0.00 | 0.33 | 0.33 | 91 | 1006.4 |
| 20260507021607 | 56 | 178 | 6.1 | 17.4 | 0.00 | 0.33 | 0.33 | 91 | 1006.7 |
| 20260507020053 | 56 | 186 | 6.1 | 18.2 | 0.01 | 0.33 | 0.33 | 90 | 1006.7 |
| 20260507014607 | 57 | 190 | 6.1 | 14.8 | 0.05 | 0.33 | 0.33 | 90 | 1007.1 |
| 20260507013049 | 57 | 227 | 6.1 | 14.8 | 0.11 | 0.33 | 0.33 | 90 | 1007.0 |
| 20260507011544 | 57 | 211 | 6.1 | 18.2 | 0.16 | 0.33 | 0.33 | 90 | 1007.1 |
| 20260507010050 | 56 | 229 | 6.1 | 13.0 | 0.17 | 0.32 | 0.32 | 90 | 1007.2 |